Powrót do katalogu

STARLINK-37004

AktywnyŁącznośćVLEO
NORAD 68089·PAYLOAD·🇺🇸 United States

Wystrzelony Mar 4, 2026 z Vandenberg Space Force Base

Loading…

Następne Przeloty (najbliższe 24 godziny)

TLE

ŚwieżeSource: CelesTrak SupGP

Epoka: Sep 14, 2026, 22:55 UTC

1 68089C 26042W   26257.95534722 -.00009825  00000+0 -29039-3 0  2572
2 68089  53.1590  15.9572 0001114  81.4948 292.9481 15.34384598    12

Śledź STARLINK-37004 w czasie rzeczywistym z AllMySat

Download on the App Store